1520042400.72,10034,8.5,71004.3,-11.13,-35.59,-34.77,0,*69
1520042401.96,10035,8.5,71000.0,-11.13,-35.47,-34.71,0,*61
1520042403.19,10036,8.5,71002.5,-11.13,-35.59,-34.77,0,*6B
1520042404.45,10037,8.5,71002.0,-11.13,-35.65,-34.89,0,*64
1520042405.7,10038,8.5,71008.0,-11.13,-35.65,-34.89,0,*6B
1520042406.97,10039,8.5,71004.5,-11.13,-35.71,-34.95,0,*62
1520042408.21,10040,8.5,71012.5,-11.17,-35.89,-34.89,0,*62
1520042409.45,10041,8.5,71010.0,-11.15,-35.71,-34.95,0,*6B
1520042410.65,10042,8.5,71014.8,-11.15,-35.59,-34.89,0,*6F
1520042411.89,10043,8.5,71018.5,-11.17,-35.89,-35.13,0,*63
1520042413.11,10044,8.5,71014.0,-11.15,-35.47,-34.77,0,*67
1520042414.34,10045,8.5,71012.8,-11.15,-35.13,-34.35,0,*61
1520042415.6,10046,8.5,71012.0,-11.15,-35.07,-34.35,0,*67
1520042416.83,10047,8.5,71014.8,-11.15,-35.41,-34.71,0,*64
1520042418.04,10048,8.5,71010.5,-11.15,-35.47,-34.77,0,*6B
1520042419.27,10049,8.5,71022.8,-11.15,-35.65,-34.89,0,*6B
1520042420.51,10050,8.5,71024.3,-11.15,-35.29,-34.53,0,*6C
1520042421.75,10051,8.5,71018.0,-11.15,-34.77,-34.19,0,*69
1520042423.01,10052,8.5,71012.0,-11.15,-34.95,-34.19,0,*66
1520042424.27,10053,8.5,70998.5,-11.15,-35.07,-34.35,0,*63
1520042425.53,10054,8.5,71010.8,-11.13,-35.65,-34.77,0,*60
1520042426.79,10055,8.5,71002.0,-11.13,-35.13,-34.35,0,*66
1520042428.02,10056,8.5,71010.0,-11.11,-35.07,-34.41,0,*61
1520042429.26,10057,8.5,71008.3,-11.11,-34.95,-34.25,0,*68
1520042430.49,10058,8.5,71018.5,-11.13,-34.89,-34.13,0,*6D
1520042431.76,10059,8.5,71014.5,-11.11,-34.53,-33.77,0,*6C
1520042433.0,10060,8.5,71012.5,-11.11,-34.47,-33.61,0,*64
1520042434.24,10061,8.5,71010.8,-11.11,-34.83,-34.07,0,*6A
1520042435.47,10062,8.5,71016.3,-11.11,-34.83,-34.25,0,*69
1520042436.73,10063,8.5,71014.0,-11.09,-34.83,-34.13,0,*64
1520042437.96,10064,8.5,71018.5,-11.09,-34.89,-34.13,0,*69
1520042439.19,10065,8.5,71020.3,-11.09,-35.17,-34.47,0,*6F
1520042440.42,10066,8.5,71006.8,-11.09,-35.59,-34.89,0,*64
1520042441.71,10067,8.5,70998.8,-11.09,-35.83,-35.07,0,*65
1520042442.97,10068,8.5,70994.5,-11.11,-35.95,-35.35,0,*65
1520042444.23,10069,8.5,70998.5,-11.13,-35.89,-35.23,0,*6C
1520042445.45,10070,8.5,71010.5,-11.11,-35.77,-35.01,0,*67
1520042446.71,10071,8.5,71004.0,-11.11,-35.65,-34.95,0,*69
1520042447.97,10072,8.5,71000.5,-11.13,-35.71,-35.07,0,*67
1520042449.25,10073,8.5,71006.0,-11.13,-35.65,-35.07,0,*63
1520042450.53,10074,8.5,71006.0,-11.13,-35.65,-35.07,0,*64
1520042451.77,10075,8.5,71010.0,-11.13,-35.71,-35.13,0,*65
1520042453.01,10076,8.5,71012.5,-11.13,-35.71,-35.13,0,*66
1520042454.25,10077,8.5,71012.8,-11.11,-35.65,-35.01,0,*63
1520042455.49,10078,8.5,71010.0,-11.13,-35.89,-35.13,0,*6F
1520042456.75,10079,8.5,71010.5,-11.13,-35.89,-35.23,0,*6D
1520042458.01,10080,8.5,71020.8,-11.13,-36.07,-35.23,0,*6E
1520042459.25,10081,8.5,71026.0,-11.15,-36.01,-35.41,0,*6B
1520042460.49,10082,8.5,71022.0,-11.15,-35.89,-35.23,0,*6F
1520042461.7,10083,8.5,71020.8,-11.15,-35.71,-35.13,0,*6A
1520042462.94,10084,8.5,71024.3,-11.17,-35.29,-34.59,0,*6D
1520042464.17,10085,8.5,71030.3,-11.15,-35.13,-34.35,0,*6D
1520042465.39,10086,8.5,71032.5,-11.15,-34.59,-33.83,0,*6B
1520042466.66,10087,8.56,71034.8,-11.15,-34.53,-33.77,0,*6B
1520042467.93,10088,8.5,71032.0,-11.13,-34.01,-33.37,0,*61
1520042469.19,10089,8.5,71022.5,-11.11,-34.31,-33.61,0,*62
1520042470.41,10090,8.5,71014.8,-11.11,-34.77,-34.13,0,*6A
1520042471.63,10091,8.5,71012.8,-11.09,-35.17,-34.41,0,*62
1520042472.9,10092,8.5,71012.3,-11.13,-35.29,-34.53,0,*64
1520042474.13,10093,8.5,71016.0,-11.11,-35.07,-34.41,0,*68
1520042475.39,10094,8.5,71012.3,-11.11,-35.35,-34.53,0,*6D
1520042476.62,10095,8.5,71012.8,-11.11,-35.35,-34.71,0,*6C
1520042477.85,10096,8.5,71006.5,-11.11,-35.53,-34.89,0,*68
1520042479.08,10097,8.5,70990.3,-11.11,-35.59,-34.83,0,*69
1520042480.32,10098,8.5,70988.8,-11.13,-35.47,-34.77,0,*60
1520042481.55,10099,8.5,70998.5,-11.11,-35.35,-34.71,0,*60
1520042482.79,10100,8.5,70998.3,-11.13,-35.59,-34.77,0,*6F
1520042484.07,10101,8.5,70996.8,-11.13,-35.65,-34.95,0,*6D
1520042485.34,10102,8.5,71000.5,-11.13,-35.71,-34.95,0,*6B
1520042486.57,10103,8.5,71010.8,-11.11,-35.65,-35.01,0,*61
1520042487.81,10104,8.5,71010.5,-11.11,-35.77,-35.07,0,*63
1520042489.07,10105,8.5,71010.5,-11.13,-36.01,-35.23,0,*64
1520042490.31,10106,8.5,71010.0,-11.13,-35.89,-35.13,0,*67
1520042491.55,10107,8.5,71010.0,-11.13,-35.47,-34.89,0,*66
1520042492.79,10108,8.5,71012.3,-11.13,-35.47,-34.71,0,*6E
1520042494.04,10109,8.5,71012.0,-11.13,-34.89,-34.31,0,*68
1520042495.31,10110,8.5,71014.0,-11.13,-34.47,-33.77,0,*67
1520042496.56,10111,8.5,71008.3,-11.13,-34.59,-33.83,0,*62
1520042497.77,10112,8.5,70996.5,-11.11,-34.25,-33.55,0,*63
1520042498.98,10113,8.5,71002.3,-11.11,-34.13,-33.55,0,*67
1520042500.22,10114,8.5,71006.8,-11.11,-33.89,-33.21,0,*67
1520042501.47,10115,8.5,71004.5,-11.05,-33.73,-33.15,0,*61
1520042502.74,10116,8.5,71004.5,-11.05,-34.01,-33.31,0,*66
1520042504.0,10117,8.5,71008.8,-11.09,-34.47,-33.89,0,*6A
1520042505.27,10118,8.5,71000.8,-11.03,-34.35,-33.67,0,*6A
1520042506.54,10119,8.5,71004.8,-11.03,-34.41,-33.89,0,*68
1520042507.81,10120,8.5,71002.8,-11.03,-34.59,-34.01,0,*6C
1520042509.08,10121,8.5,70996.8,-11.01,-34.35,-33.61,0,*64
1520042510.37,10122,8.5,71002.8,-11.03,-34.35,-33.49,0,*6F
1520042511.64,10123,8.5,70998.3,-11.01,-34.01,-33.31,0,*64
1520042512.93,10124,8.5,71000.3,-10.99,-34.31,-33.61,0,*65
1520042514.19,10125,8.5,71000.3,-10.99,-34.41,-33.77,0,*64
1520042515.48,10126,8.5,71008.8,-10.99,-34.35,-33.77,0,*64
1520042516.74,10127,8.5,71004.0,-10.97,-34.31,-33.61,0,*68
1520042517.96,10128,8.5,71016.8,-10.97,-34.71,-34.13,0,*61
1520042519.22,10129,8.5,71018.3,-10.97,-34.95,-34.35,0,*6E
1520042520.52,10130,8.5,71014.3,-10.99,-34.01,-33.49,0,*69
1520042521.8,10131,8.5,71014.5,-10.99,-34.19,-33.61,0,*6B
1520042523.04,10132,8.5,71010.3,-10.97,-34.53,-33.83,0,*64
1520042524.28,10133,8.5,71014.5,-10.97,-34.89,-34.19,0,*66
1520042525.49,10134,8.5,71008.0,-10.97,-35.29,-34.59,0,*6E
1520042526.7,10135,8.5,71008.3,-10.97,-35.13,-34.59,0,*66
1520042527.93,10136,8.5,71008.3,-10.95,-34.89,-34.25,0,*6E
1520042529.17,10137,8.5,71012.8,-10.97,-35.07,-34.59,0,*61
1520042530.44,10138,8.5,71008.0,-10.95,-35.23,-34.71,0,*60
1520042531.73,10139,8.5,71014.0,-10.95,-35.23,-34.65,0,*64
1520042532.99,10140,8.5,71010.8,-10.95,-35.35,-34.71,0,*68
1520042534.25,10141,8.5,71006.0,-10.97,-35.53,-34.95,0,*61
1520042535.5,10142,8.5,71004.3,-10.97,-35.83,-35.29,0,*69
1520042536.76,10143,8.5,71006.3,-10.99,-36.07,-35.41,0,*67
1520042538.0,10144,8.5,71010.0,-10.99,-36.01,-35.47,0,*60
1520042539.27,10145,8.5,71004.5,-11.01,-35.83,-35.41,0,*6E
1520042540.49,10146,8.5,71004.5,-11.01,-35.89,-35.29,0,*69
1520042541.76,10147,8.5,71014.8,-11.03,-35.95,-35.47,0,*6F
1520042543.03,10148,8.5,71028.0,-11.03,-35.89,-35.35,0,*68
1520042544.27,10149,8.5,71028.8,-11.03,-35.29,-34.59,0,*68
1520042545.5,10150,8.5,71022.5,-11.01,-34.89,-34.35,0,*63
1520042546.77,10151,8.5,71018.3,-11.03,-34.95,-34.41,0,*6E
1520042548.03,10152,8.5,71012.3,-11.03,-35.13,-34.65,0,*64
1520042549.3,10153,8.5,71022.3,-11.03,-35.29,-34.83,0,*64
1520042550.53,10154,8.5,71022.0,-11.01,-35.41,-34.89,0,*65
1520042551.77,10155,8.5,71014.5,-11.01,-35.47,-35.07,0,*65
1520042553.01,10156,8.5,71012.3,-11.03,-35.59,-35.29,0,*67
1520042554.27,10157,8.5,71006.3,-11.03,-35.71,-35.35,0,*61
1520042555.49,10158,8.5,71006.0,-11.01,-35.71,-35.29,0,*61
1520042556.73,10159,8.5,71010.5,-11.01,-35.65,-35.13,0,*6C
1520042557.99,10160,8.5,71010.0,-11.03,-35.59,-34.95,0,*64
1520042559.26,10161,8.5,71008.5,-11.03,-35.47,-34.65,0,*65
1520042560.51,10162,8.5,71008.3,-11.05,-35.35,-35.01,0,*66
1520042561.77,10163,8.5,71014.0,-11.05,-35.35,-34.65,0,*64
1520042563.01,10164,8.5,71020.3,-11.05,-35.29,-34.83,0,*66
1520042564.28,10165,8.5,71014.8,-11.09,-35.53,-35.23,0,*6D
1520042565.5,10166,8.5,71014.3,-11.05,-35.59,-35.13,0,*6B
1520042566.71,10167,8.5,71026.3,-11.05,-35.59,-35.17,0,*6E
1520042567.98,10168,8.5,71022.8,-11.09,-35.77,-35.41,0,*62
1520042569.26,10169,8.5,71022.8,-11.09,-35.83,-35.35,0,*6B
1520042570.54,10170,8.5,71020.3,-11.09,-35.83,-35.41,0,*60
1520042571.83,10171,8.5,71012.3,-11.09,-35.83,-35.35,0,*62
1520042573.09,10172,8.5,71014.5,-11.11,-35.95,-35.41,0,*6C
1520042574.36,10173,8.5,71018.8,-11.11,-35.83,-35.35,0,*69
1520042575.57,10174,8.5,71020.8,-11.11,-35.89,-35.47,0,*61
1520042576.79,10175,8.5,71020.3,-11.11,-36.01,-35.47,0,*63
1520042578.03,10176,8.5,71012.8,-11.13,-36.07,-35.47,0,*64
1520042579.27,10177,8.5,71006.0,-11.13,-36.07,-35.59,0,*6A
1520042580.51,10178,8.5,71002.3,-11.13,-36.19,-35.59,0,*6A
1520042581.74,10179,8.5,71008.8,-11.13,-36.19,-35.59,0,*6B
1520042582.98,10180,8.5,71014.0,-11.13,-36.19,-35.59,0,*6D
1520042584.27,10181,8.5,71010.0,-11.17,-36.25,-35.65,0,*68
1520042585.52,10182,8.5,71022.0,-11.17,-35.89,-35.47,0,*6E
1520042586.78,10183,8.5,71026.3,-11.17,-35.17,-34.53,0,*6C
1520042588.04,10184,8.5,71020.0,-11.17,-34.83,-34.25,0,*66
1520042589.27,10185,8.5,71020.0,-11.15,-34.41,-33.89,0,*6A
1520042590.51,10186,8.5,71016.5,-11.15,-34.13,-33.61,0,*68
1520042591.75,10187,8.5,71018.8,-11.11,-34.41,-33.89,0,*6C
1520042593.03,10188,8.5,71008.8,-11.13,-35.07,-34.31,0,*66
1520042594.33,10189,8.5,71010.0,-11.13,-35.07,-34.53,0,*63
1520042595.57,10190,8.5,71000.3,-11.13,-35.29,-34.77,0,*61
1520042596.86,10191,8.5,70990.8,-11.13,-35.41,-34.95,0,*62
1520042598.09,10192,8.5,70986.0,-11.11,-35.35,-34.89,0,*6D
1520042599.34,10193,8.5,70994.3,-11.11,-35.53,-34.83,0,*66
1520042600.59,10194,8.5,71000.0,-11.13,-35.41,-34.71,0,*6D
1520042601.86,10195,8.5,71006.5,-11.11,-35.07,-34.31,0,*68
1520042603.13,10196,8.5,71008.3,-11.13,-34.95,-34.47,0,*62
1520042604.36,10197,8.5,71012.3,-11.13,-34.89,-34.71,0,*6B
1520042605.6,10198,8.5,71018.3,-11.15,-35.41,-35.13,0,*62
1520042606.84,10199,8.5,71016.0,-11.15,-35.83,-35.29,0,*64
1520042608.09,10200,8.5,71020.3,-11.15,-35.83,-35.29,0,*67
1520042609.36,10201,8.5,71028.3,-11.17,-35.95,-35.47,0,*6B
1520042610.65,10202,8.5,71020.3,-11.17,-35.95,-35.41,0,*6E
1520042611.91,10203,8.5,71012.8,-11.17,-36.13,-35.47,0,*64
1520042613.18,10204,8.5,71006.0,-11.17,-35.89,-35.35,0,*66
1520042614.41,10205,8.5,71004.8,-11.15,-35.71,-35.07,0,*63
1520042615.65,10206,8.5,71000.3,-11.17,-35.71,-35.17,0,*63
1520042616.89,10207,8.5,70998.3,-11.17,-35.71,-35.01,0,*65
1520042618.11,10208,8.5,71006.5,-11.19,-35.71,-35.17,0,*63
1520042619.37,10209,8.5,71010.8,-11.21,-35.77,-35.23,0,*68
1520042620.61,10210,8.5,71010.3,-11.19,-35.77,-35.23,0,*6B
1520042621.88,10211,8.5,71006.8,-11.19,-35.83,-35.23,0,*61
1520042623.14,10212,8.5,71010.3,-11.21,-35.83,-35.17,0,*6E
1520042624.43,10213,8.5,71004.3,-11.21,-35.83,-35.23,0,*68
1520042625.69,10214,8.5,71010.3,-11.19,-35.83,-35.35,0,*63
1520042626.96,10215,8.5,71008.3,-11.21,-35.77,-35.23,0,*65
1520042628.25,10216,8.5,71022.0,-11.21,-35.83,-35.35,0,*6A
1520042629.54,10217,8.5,71018.3,-11.21,-35.95,-35.35,0,*6C
1520042630.8,10218,8.5,71004.8,-11.21,-34.89,-34.31,0,*6A
1520042632.07,10219,8.5,71018.5,-11.21,-35.07,-34.47,0,*6D
1520042633.33,10220,8.5,71026.0,-11.21,-35.53,-35.01,0,*65
1520042634.57,10221,8.5,71024.8,-11.21,-35.71,-35.01,0,*64
1520042635.84,10222,8.5,71022.8,-11.21,-35.23,-34.47,0,*63
1520042637.07,10223,8.5,71022.0,-11.21,-35.17,-34.59,0,*6A
1520042638.36,10224,8.5,71022.5,-11.21,-35.35,-34.83,0,*6A
1520042639.63,10225,8.5,71028.8,-11.21,-35.53,-34.83,0,*6B
1520042640.87,10226,8.5,71032.5,-11.21,-35.01,-34.41,0,*61
1520042642.14,10227,8.5,71014.5,-11.21,-34.83,-34.07,0,*69
1520042643.4,10228,8.5,71006.3,-11.19,-35.07,-34.31,0,*65
1520042644.66,10229,8.5,71002.5,-11.21,-35.01,-34.31,0,*69
1520042645.93,10230,8.5,71006.5,-11.19,-35.07,-34.31,0,*6C
1520042647.22,10231,8.5,71014.0,-11.21,-35.35,-34.65,0,*66
1520042648.48,10232,8.5,71010.8,-11.19,-35.41,-34.65,0,*6D
1520042649.72,10233,8.5,71014.3,-11.19,-35.53,-34.71,0,*6A
1520042650.97,10234,8.5,71012.0,-11.21,-35.53,-34.89,0,*61
1520042652.18,10235,8.5,71014.0,-11.19,-35.59,-34.89,0,*61
1520042653.42,10236,8.5,71014.8,-11.21,-35.71,-35.01,0,*62
1520042654.65,10237,8.5,71016.8,-11.21,-35.59,-34.89,0,*68
1520042655.91,10238,8.5,71014.8,-11.21,-35.59,-34.83,0,*6D
1520042657.14,10239,8.5,71010.8,-11.21,-35.59,-34.89,0,*66
1520042658.38,10240,8.5,71016.5,-11.21,-35.59,-35.01,0,*69
1520042659.62,10241,8.5,71020.0,-11.21,-35.71,-35.01,0,*62
1520042660.84,10242,8.5,71022.3,-11.23,-35.71,-34.89,0,*62
1520042662.05,10243,8.5,71022.5,-11.23,-35.71,-34.89,0,*63
1520042663.31,10244,8.5,71022.8,-11.23,-35.83,-35.07,0,*6E
1520042664.58,10245,8.5,71028.3,-11.25,-35.83,-35.13,0,*6C
1520042665.83,10246,8.5,71026.0,-11.23,-35.23,-34.47,0,*63
1520042667.04,10247,8.5,71026.8,-11.23,-34.89,-34.13,0,*62
1520042668.28,10248,8.5,71022.3,-11.23,-34.83,-34.13,0,*67
1520042669.49,10249,8.5,71020.3,-11.23,-34.89,-34.25,0,*69
1520042670.76,10250,8.5,71010.3,-11.21,-34.65,-33.95,0,*6D
1520042671.99,10251,8.5,71002.5,-11.21,-35.01,-34.25,0,*63
1520042673.22,10252,8.5,71000.3,-11.19,-35.53,-34.59,0,*67
1520042674.48,10253,8.5,71008.5,-11.21,-35.41,-34.71,0,*64
1520042675.74,10254,8.5,71008.8,-11.19,-35.53,-34.65,0,*6E
1520042677.0,10255,8.5,71010.5,-11.21,-35.71,-34.83,0,*6C
1520042678.26,10256,8.5,71012.3,-11.21,-35.71,-34.83,0,*6F
1520042679.5,10257,8.5,71012.0,-11.21,-35.71,-34.89,0,*64
1520042680.76,10258,8.5,71008.3,-11.21,-35.77,-34.83,0,*67
1520042682.01,10259,8.5,71014.8,-11.21,-35.77,-35.01,0,*6D
1520042683.28,10260,8.5,71014.0,-11.21,-35.83,-35.01,0,*6C
1520042684.52,10261,8.5,71016.8,-11.23,-35.71,-34.83,0,*69
1520042685.75,10262,8.5,71018.0,-11.23,-35.23,-34.41,0,*63
1520042686.99,10263,8.5,71026.5,-11.23,-35.07,-34.13,0,*63
1520042688.24,10264,8.5,71024.8,-11.23,-34.07,-33.31,0,*62
1520042689.46,10265,8.5,71024.3,-11.23,-34.07,-33.15,0,*65
1520042690.71,10266,8.5,71018.8,-11.19,-34.07,-33.31,0,*69
1520042691.95,10267,8.5,71012.8,-11.19,-34.31,-33.55,0,*6F
1520042693.17,10268,8.5,71004.8,-11.19,-34.47,-33.55,0,*61
1520042694.39,10269,8.5,71014.8,-11.19,-35.01,-34.13,0,*66
1520042695.62,10270,8.5,71010.8,-11.17,-35.13,-34.25,0,*66
1520042696.88,10271,8.5,70992.8,-11.17,-35.13,-34.35,0,*66
1520042698.13,10272,8.5,70992.0,-11.17,-35.17,-34.35,0,*61
1520042699.39,10273,8.5,70996.5,-11.17,-35.29,-34.35,0,*6D
1520042700.62,10274,8.5,71010.8,-11.17,-35.47,-34.41,0,*61
1520042701.85,10275,8.5,71006.5,-11.17,-35.17,-34.25,0,*67
1520042703.08,10276,8.5,71010.0,-11.17,-35.17,-34.25,0,*64
1520042704.31,10277,8.5,71012.0,-11.15,-35.13,-34.31,0,*66
1520042705.57,10278,8.5,71012.0,-11.15,-35.07,-34.19,0,*66
1520042706.86,10279,8.5,71012.8,-11.17,-34.53,-33.49,0,*67
1520042708.13,10280,8.5,71012.3,-11.17,-34.01,-33.15,0,*6F
1520042709.4,10281,8.5,71022.0,-11.17,-33.83,-32.79,0,*68
1520042710.64,10282,8.5,71020.5,-11.13,-33.83,-32.91,0,*69
1520042711.85,10283,8.5,71010.3,-11.11,-33.95,-33.21,0,*67
1520042713.07,10284,8.5,71004.5,-11.11,-34.41,-33.37,0,*69
1520042714.34,10285,8.5,70994.5,-11.13,-34.53,-33.67,0,*6C
1520042715.59,10286,8.5,70982.0,-11.13,-34.71,-33.67,0,*6F
1520042716.83,10287,8.5,71000.8,-11.11,-34.25,-33.31,0,*6E
1520042718.04,10288,8.5,70998.8,-11.11,-34.41,-33.55,0,*61
1520042719.27,10289,8.5,71002.5,-11.11,-34.89,-33.89,0,*65
1520042720.48,10290,8.5,70992.5,-11.11,-35.17,-34.25,0,*6A
1520042721.7,10291,8.5,70994.8,-11.09,-35.17,-34.41,0,*60
1520042722.97,10292,8.5,70992.0,-11.09,-35.35,-34.31,0,*64
1520042724.25,10293,8.5,70998.3,-11.09,-35.23,-34.31,0,*62
1520042725.47,10294,8.5,71010.5,-11.09,-35.17,-34.25,0,*67
1520042726.7,10295,8.5,71014.5,-11.11,-35.35,-34.41,0,*6D
1520042727.98,10296,8.5,71014.8,-11.13,-35.41,-34.53,0,*6C
1520042729.24,10297,8.5,71018.3,-11.13,-35.47,-34.53,0,*6B
1520042730.46,10298,8.5,71014.5,-11.11,-35.53,-34.41,0,*60
1520042731.72,10299,8.5,71018.5,-11.13,-35.59,-34.53,0,*6A
1520042732.98,10300,8.5,71014.5,-11.13,-35.65,-34.59,0,*6E
1520042734.24,10301,8.5,71012.0,-11.13,-35.65,-34.71,0,*65
1520042735.5,10302,8.5,71010.8,-11.13,-35.65,-34.59,0,*6C
1520042736.75,10303,8.5,71004.3,-11.13,-35.65,-34.71,0,*67
1520042737.99,10304,8.5,71020.5,-11.13,-35.71,-34.71,0,*65
1520042739.23,10305,8.5,71018.0,-11.13,-35.71,-34.71,0,*64
1520042740.44,10306,8.5,71014.0,-11.15,-35.71,-34.77,0,*67
1520042741.67,10307,8.5,71006.5,-11.15,-35.65,-34.77,0,*63
1520042742.91,10308,8.5,71002.0,-11.15,-35.83,-34.71,0,*62
1520042744.16,10309,8.5,71000.0,-11.17,-35.77,-34.77,0,*6C
1520042745.42,10310,8.5,71008.3,-11.17,-35.77,-34.83,0,*6F
1520042746.68,10311,8.5,71010.3,-11.17,-35.77,-34.83,0,*6E
1520042747.92,10312,8.5,71010.8,-11.17,-35.71,-34.77,0,*60
1520042749.21,10313,8.5,71006.5,-11.17,-35.65,-34.65,0,*67
1520042750.48,10314,8.5,71012.5,-11.17,-35.71,-34.65,0,*65
1520042751.72,10315,8.5,71016.0,-11.17,-35.77,-34.77,0,*61
1520042752.93,10316,8.5,71018.5,-11.19,-35.59,-34.47,0,*63
1520042754.15,10317,8.5,71010.0,-11.19,-35.59,-34.47,0,*62
1520042755.36,10318,8.5,70996.8,-11.19,-35.59,-34.59,0,*62
1520042756.6,10319,8.5,70994.3,-11.19,-35.59,-34.65,0,*6C
1520042757.84,10320,8.5,71000.3,-11.21,-35.71,-34.71,0,*62
1520042759.11,10321,8.5,71004.3,-11.21,-35.71,-34.65,0,*66
1520042760.35,10322,8.5,71002.5,-11.19,-35.59,-34.65,0,*64
1520042761.59,10323,8.5,71006.5,-11.19,-35.59,-34.65,0,*65
1520042762.85,10324,8.5,71008.5,-11.21,-35.59,-34.65,0,*69
1520042764.12,10325,8.5,71008.5,-11.21,-35.71,-34.65,0,*62
1520042765.38,10326,8.5,71010.3,-11.21,-35.71,-34.83,0,*69
1520042766.65,10327,8.5,71028.5,-11.21,-35.59,-34.65,0,*6A
1520042767.91,10328,8.5,71030.3,-11.21,-35.59,-34.65,0,*65
1520042769.18,10329,8.5,71022.5,-11.21,-35.71,-34.65,0,*6E
1520042770.42,10330,8.5,71018.3,-11.21,-35.71,-34.71,0,*63
1520042771.66,10331,8.5,71018.3,-11.21,-35.77,-34.71,0,*64
1520042772.88,10332,8.5,71022.3,-11.23,-35.77,-34.71,0,*65
1520042774.12,10333,8.5,71024.0,-11.23,-35.77,-34.83,0,*69
1520042775.41,10334,8.5,71014.0,-11.25,-35.83,-34.95,0,*64
1520042776.65,10335,8.5,71008.5,-11.23,-35.83,-34.71,0,*69
1520042777.89,10336,8.5,71008.8,-11.25,-35.89,-34.89,0,*61
1520042779.13,10337,8.5,71010.3,-11.23,-35.83,-34.89,0,*6C
1520042780.39,10338,8.5,71000.0,-11.25,-35.83,-34.89,0,*65
1520042781.61,10339,8.5,71002.0,-11.23,-35.71,-34.71,0,*68
1520042782.85,10340,8.5,71000.5,-11.25,-35.89,-34.89,0,*60
1520042784.11,10341,8.5,70994.5,-11.25,-35.83,-34.89,0,*6B
1520042785.37,10342,8.5,70996.8,-11.25,-35.83,-34.89,0,*68
1520042786.59,10343,8.5,71008.0,-11.27,-35.89,-34.77,0,*60
1520042787.81,10344,8.5,71004.5,-11.27,-35.89,-34.89,0,*66
1520042789.03,10345,8.5,71004.5,-11.27,-35.77,-34.77,0,*67
1520042790.25,10346,8.5,71010.0,-11.27,-35.77,-34.77,0,*64
1520042791.52,10347,8.5,71008.3,-11.31,-35.83,-34.95,0,*65
1520042792.77,10348,8.5,71010.8,-11.31,-35.71,-34.95,0,*67
1520042794.01,10349,8.5,71016.8,-11.31,-35.71,-34.95,0,*66
1520042795.23,10350,8.5,71016.8,-11.27,-35.77,-34.89,0,*62
1520042796.45,10351,8.5,71026.0,-11.27,-35.77,-34.89,0,*63
1520042797.72,10352,8.5,71026.0,-11.31,-35.83,-34.95,0,*61
1520042798.97,10353,8.5,71028.5,-11.33,-35.53,-34.59,0,*6F
1520042800.23,10354,8.5,71032.5,-11.33,-35.65,-34.77,0,*61
1520042801.53,10355,8.5,71036.3,-11.33,-34.83,-34.01,0,*68
1520042802.75,10356,8.5,71030.0,-11.27,-34.13,-33.37,0,*65
1520042804.01,10357,8.5,71026.8,-11.27,-34.13,-33.27,0,*65
1520042805.27,10358,8.5,71018.8,-11.27,-34.35,-33.61,0,*6C
1520042806.49,10359,8.5,71012.0,-11.27,-34.89,-33.95,0,*61
1520042807.75,10360,8.5,71000.0,-11.25,-35.07,-34.13,0,*67
1520042809.02,10361,8.5,70978.0,-11.25,-34.95,-34.13,0,*6C
1520042810.26,10362,8.5,70980.5,-11.23,-35.17,-34.31,0,*62
1520042811.52,10363,8.5,71000.8,-11.23,-35.07,-34.31,0,*62
1520042812.73,10364,8.5,71008.5,-11.23,-35.17,-34.41,0,*63
1520042813.96,10365,8.5,71014.8,-11.23,-35.35,-34.41,0,*62
1520042815.19,10366,8.5,71004.3,-11.23,-35.41,-34.59,0,*6B
1520042816.42,10367,8.5,71008.5,-11.23,-35.53,-34.59,0,*69
1520042817.66,10368,8.5,71008.3,-11.25,-35.77,-34.71,0,*6C
1520042818.92,10369,8.5,71018.3,-11.25,-35.65,-34.77,0,*68
1520042820.18,10370,8.5,71014.5,-11.23,-35.53,-34.65,0,*60
1520042821.4,10371,8.5,71018.3,-11.27,-35.59,-34.71,0,*6A
1520042822.64,10372,8.5,71020.8,-11.25,-35.77,-34.77,0,*61
1520042823.88,10373,8.5,71018.8,-11.25,-35.77,-34.89,0,*61
1520042825.15,10374,8.5,71020.8,-11.25,-35.83,-35.13,0,*6F
1520042826.42,10375,8.5,71020.5,-11.27,-35.83,-35.07,0,*69
1520042827.69,10376,8.5,71022.3,-11.27,-35.83,-35.07,0,*6A
1520042828.91,10377,8.5,71018.0,-11.27,-35.89,-35.13,0,*64
1520042830.13,10378,8.5,71014.3,-11.27,-36.01,-35.13,0,*68
1520042831.35,10379,8.5,71018.8,-11.31,-36.07,-35.29,0,*61
1520042832.6,10380,8.5,71014.5,-11.31,-35.71,-34.95,0,*63
1520042833.86,10381,8.5,71014.8,-11.31,-34.95,-34.19,0,*6D
1520042835.11,10382,8.5,71022.3,-11.27,-34.13,-33.27,0,*6D
1520042836.36,10383,8.5,71008.3,-11.27,-34.01,-33.37,0,*6E
1520042837.66,10384,8.5,71012.0,-11.25,-34.01,-33.27,0,*6A
1520042838.88,10385,8.5,71008.5,-11.23,-33.95,-33.21,0,*61
1520042840.15,10386,8.5,71006.0,-11.23,-34.31,-33.49,0,*65
1520042841.39,10387,8.5,71010.5,-11.23,-34.59,-33.73,0,*63
1520042842.69,10388,8.5,71010.8,-11.21,-34.65,-33.77,0,*65
1520042843.93,10389,8.5,71008.8,-11.21,-35.01,-34.13,0,*62
1520042845.16,10390,8.5,71008.3,-11.21,-35.17,-34.25,0,*68
1520042846.39,10391,8.5,71004.3,-11.21,-35.17,-34.41,0,*6B
1520042847.62,10392,8.5,71002.0,-11.21,-35.17,-34.41,0,*68
1520042848.88,10393,8.5,70998.5,-11.21,-35.23,-34.59,0,*67
1520042850.12,10394,8.5,71000.5,-11.19,-35.23,-34.47,0,*64
1520042851.38,10395,8.5,71002.5,-11.21,-35.23,-34.41,0,*68
1520042852.62,10396,8.5,70992.3,-11.19,-35.35,-34.59,0,*6E
1520042853.85,10397,8.5,70998.0,-11.19,-35.53,-34.89,0,*62
1520042855.1,10398,8.5,71010.0,-11.21,-35.71,-34.83,0,*6C
1520042856.37,10399,8.5,70996.0,-11.21,-35.23,-34.59,0,*6D
1520042857.57,10400,8.5,70992.0,-11.19,-35.17,-34.41,0,*6F
1520042858.81,10401,8.5,71008.0,-11.19,-35.23,-34.59,0,*60
1520042860.04,10402,8.5,71008.8,-11.21,-35.59,-34.89,0,*68
1520042861.28,10403,8.5,71014.3,-11.19,-35.71,-35.07,0,*6F
1520042862.57,10404,8.5,71024.3,-11.21,-35.83,-35.23,0,*68
1520042863.86,10405,8.5,71016.3,-11.21,-35.95,-35.35,0,*69
1520042865.15,10406,8.5,71012.5,-11.21,-35.83,-35.23,0,*6A
1520042866.42,10407,8.5,71012.8,-11.21,-36.19,-35.41,0,*6F
1520042867.63,10408,8.5,71014.3,-11.23,-36.19,-35.59,0,*6B
1520042868.92,10409,8.5,71018.5,-11.25,-36.37,-35.65,0,*6F
1520042870.16,10410,8.5,71006.3,-11.25,-35.29,-34.71,0,*6F
1520042871.41,10411,8.5,71012.8,-11.23,-35.41,-34.83,0,*6B
1520042872.65,10412,8.5,71016.8,-11.25,-35.47,-34.77,0,*63
1520042873.89,10413,8.5,71018.8,-11.25,-35.29,-34.71,0,*6C
1520042875.18,10414,8.5,71020.3,-11.25,-35.23,-34.53,0,*61
1520042876.47,10415,8.5,71024.8,-11.25,-35.07,-34.35,0,*66
1520042877.76,10416,8.5,71020.3,-11.25,-35.07,-34.35,0,*65
1520042878.99,10417,8.5,71012.3,-11.19,-34.89,-34.31,0,*68
1520042880.26,10418,8.5,71014.5,-11.21,-35.01,-34.31,0,*6D
1520042881.52,10419,8.5,71010.0,-11.21,-35.01,-34.31,0,*6C
1520042882.78,10420,8.5,71004.3,-11.21,-34.89,-34.31,0,*67
1520042884.02,10421,8.5,70998.0,-11.19,-35.07,-34.41,0,*6D
1520042885.25,10422,8.5,70990.8,-11.21,-35.17,-34.59,0,*6D
1520042886.48,10423,8.5,70988.5,-11.19,-35.53,-34.89,0,*6A
1520042887.74,10424,8.5,70998.0,-11.21,-35.59,-34.83,0,*66
1520042888.97,10425,8.5,70998.5,-11.21,-35.59,-34.89,0,*6D
1520042890.21,10426,8.5,71006.0,-11.21,-35.59,-35.01,0,*6F
1520042891.45,10427,8.5,71008.3,-11.19,-35.59,-35.07,0,*63
1520042892.68,10428,8.5,71010.5,-11.21,-35.71,-35.17,0,*6C
1520042893.95,10429,8.5,71018.5,-11.21,-35.71,-35.07,0,*6C
1520042895.21,10430,8.5,71018.5,-11.21,-35.77,-35.07,0,*62
1520042896.46,10431,8.5,71016.0,-11.19,-35.77,-35.07,0,*68
1520042897.72,10432,8.5,71020.0,-11.21,-35.83,-35.17,0,*6A
1520042898.96,10433,8.5,71012.3,-11.19,-35.95,-35.17,0,*67
1520042900.23,10434,8.5,71016.0,-11.23,-35.95,-35.23,0,*6E
1520042901.49,10435,8.5,71018.5,-11.23,-35.35,-34.83,0,*6E
1520042902.75,10436,8.5,71014.8,-11.21,-35.07,-34.41,0,*60
1520042903.99,10437,8.5,71008.3,-11.21,-35.01,-34.41,0,*67
1520042905.22,10438,8.5,71014.0,-11.19,-34.41,-33.77,0,*64
1520042906.46,10439,8.5,71012.3,-11.19,-34.83,-34.25,0,*6B
1520042907.68,10440,8.5,71016.0,-11.19,-34.59,-34.07,0,*62